Delavan, Wisconsin, United States (53115)
Lat: 42.63N, Lon: 88.64W
Wx Zone: WIZ070
Local Info
Past Weather Observations for Today

NOTE: This archive is for the closest National Weather Service station to Delavan. Information may differ from the station used for current weather conditions.

Click here for Long-term Archive

Time Weather Temperature Dewpoint Humidity Pressure Winds Precip Visibility
09:55
Clear
82°F / 28°C 72°F / 22°C 70% 30.04 in
(1017 mb)
S 5.8 mph
(S 9 kph)
- 10SM
09:35
Clear
81°F / 27°C 70°F / 21°C 70% 30.04 in
(1017 mb)
S 3.5 mph
(S 6 kph)
- 10SM
09:15
Clear
79°F / 26°C 72°F / 22°C 79% 30.04 in
(1017 mb)
S 3.5 mph
(S 6 kph)
- 10SM
08:55
Clear
79°F / 26°C 72°F / 22°C 79% 30.04 in
(1017 mb)
SSE 5.8 mph
(SSE 9 kph)
- 10SM
08:35
Clear
73°F / 23°C 72°F / 22°C 94% 30.04 in
(1017 mb)
SW 5.8 mph
(SW 9 kph)
- 10SM
08:15
Clear
72°F / 22°C 72°F / 22°C 100% 30.04 in
(1017 mb)
SW 4.6 mph
(SW 7 kph)
- 7SM
07:55
Clear
72°F / 22°C 72°F / 22°C 100% 30.04 in
(1017 mb)
Calm - 7SM
07:35
Clear
Fog And Mist
70°F / 21°C 70°F / 21°C 100% 30.04 in
(1017 mb)
SW 4.6 mph
(SW 7 kph)
- 5SM
07:15
Clear
Fog And Mist
70°F / 21°C 68°F / 20°C 94% 30.04 in
(1017 mb)
SSE 3.5 mph
(SSE 6 kph)
- 3SM
06:55
Clear
Fog And Mist
66°F / 19°C 66°F / 19°C 100% 30.04 in
(1017 mb)
Calm - 2SM
06:35
Obscured
Fog And Mist
64°F / 18°C 64°F / 18°C 100% 30.06 in
(1018 mb)
Calm - 1 1/4SM
06:15
Obscured
Fog And Mist
63°F / 17°C 61°F / 16°C 94% 30.04 in
(1017 mb)
Calm - 3/4SM
05:55
Obscured
Fog And Mist
61°F / 16°C 61°F / 16°C 100% 30.04 in
(1017 mb)
Calm - 1 1/2SM
05:35
Overcast
Fog
59°F / 15°C 59°F / 15°C 100% 30.04 in
(1017 mb)
Calm - 1/4SM
05:15
Overcast
Fog
59°F / 15°C 59°F / 15°C 100% 30.04 in
(1017 mb)
Calm - 1/2SM
04:55
Mostly Cloudy
Fog
59°F / 15°C 59°F / 15°C 100% 30.04 in
(1017 mb)
Calm - 1/2SM
04:35
Overcast
Fog
59°F / 15°C 59°F / 15°C 100% 30.04 in
(1017 mb)
Calm - 1/4SM
04:15
Overcast
Fog
59°F / 15°C 59°F / 15°C 100% 30.04 in
(1017 mb)
Calm - 1/4SM
03:55
Partly Cloudy
Fog And Mist
59°F / 15°C 59°F / 15°C 100% 30.04 in
(1017 mb)
Calm - 1 1/4SM
03:35
Obscured
Fog
59°F / 15°C 59°F / 15°C 100% 30.04 in
(1017 mb)
Calm - 1/2SM
03:15
Partly Cloudy
Fog And Mist
61°F / 16°C 61°F / 16°C 100% 30.04 in
(1017 mb)
Calm - 1 1/4SM
02:55
Overcast
Fog
59°F / 15°C 59°F / 15°C 100% 30.04 in
(1017 mb)
Calm - 1/2SM
02:35
Overcast
Fog
59°F / 15°C 59°F / 15°C 100% 30.04 in
(1017 mb)
Calm - 1/4SM
02:15
Obscured
Fog
59°F / 15°C 59°F / 15°C 100% 30.04 in
(1017 mb)
Calm - 1/4SM
01:55
Obscured
Fog
59°F / 15°C 59°F / 15°C 100% 30.04 in
(1017 mb)
Calm - 1/4SM
01:35
Obscured
Fog
61°F / 16°C 61°F / 16°C 100% 30.04 in
(1017 mb)
Calm - 1/4SM
01:15
Obscured
Fog
61°F / 16°C 61°F / 16°C 100% 30.04 in
(1017 mb)
Calm - 1/4SM
00:55
Obscured
Fog And Mist
61°F / 16°C 61°F / 16°C 100% 30.04 in
(1017 mb)
Calm - 1 1/4SM
00:35
Clear
Fog And Mist
61°F / 16°C 61°F / 16°C 100% 30.04 in
(1017 mb)
Calm - 4SM
00:15
Obscured
Fog And Mist
61°F / 16°C 61°F / 16°C 100% 30.04 in
(1017 mb)
Calm - 1SM
Time Weather Temperature Dewpoint Humidity Pressure Winds Precip Visibility


Weather for websites

WeatherForYou.com, LLC is not responsible for any damages or problems caused by this service. Current weather conditions are obtained from the closest station including government and personal stations which may have varying degrees of accuracy. Weather forecasts are derived from the NOAA NDFD. Like all things, this site belongs to Jesus Christ... He just trusts us to maintain it. If you have any questions or comments email webmaster@weatherforyou.com

Copyright © 2015, WeatherForYou.com LLC. All rights reserved.